"Pseudo-MPEC" for JiS11Ij

Created 2024 Aug 14 22:22:06 UT using Find_Orb

Click here for an explanation of pseudo-MPECs

 
 Astrometry: 
     JiS11Ij*!C2024 07 29.39700 01 10 17.14 -37 32 33.1    ~7TN7 20.9 GXNEOCPW84
     JiS11Ij !C2024 07 29.39951 01 10 17.44 -37 32 31.7    ~7TN7 20.9 GXNEOCPW84
     JiS11Ij !C2024 07 29.40951 01 10 18.65 -37 32 26.4    ~7TN7 20.9 GXNEOCPW84
     JiS11Ij !C2024 07 29.41201 01 10 18.96 -37 32 25.0    ~7TN7 20.9 GXNEOCPW84
     JiS11Ij !C2024 07 29.41452 01 10 19.25 -37 32 23.7    ~7TN7 20.9 GXNEOCPW84
     JiS11Ij !C2024 07 29.41701 01 10 19.56 -37 32 22.3    ~7TN7 21.0 GXNEOCPW84
     JiS11Ij !C2024 07 29.42201 01 10 20.16 -37 32 19.5    ~7TN7 21.0 GXNEOCPW84
     JiS11Ij !C2024 07 29.42954 01 10 21.06 -37 32 15.5    ~7TN7 21.0 GXNEOCPW84
     JiS11Ij !C2024 07 29.43205 01 10 21.35 -37 32 14.1    ~7TN7 21.1 GXNEOCPW84
     JiS11Ij !C2024 07 29.43455 01 10 21.67 -37 32 12.7    ~7TN7 21.0 GXNEOCPW84
     JiS11Ij !C2024 07 29.43704 01 10 21.98 -37 32 11.3    ~7TN7 21.0 GXNEOCPW84

Station data:
(W84) Cerro Tololo-DECam  (S30.169594 W70.806420)  Chile.  Observer F. Valdes.
    Measurer S. Deen. 4.0-m reflector + CCD.

Orbital elements:  JiS11Ij
   Perihelion 2024 Nov 1.76684 +/- 37.3 TT = 18:24:14 (JD 2460616.26684)
Epoch 2024 Jul 29.0 TT = JDT 2460520.5   Earth MOID: 0.0370      AutoNEOCP
M 296.00747305 +/- 38               (J2000 ecliptic)
n   0.66821175 +/- 0.467            Peri.   51.68065 +/- 80
a   1.29576618 +/- 0.603            Node   356.61939 +/- 43
e   0.2547547 +/- 0.244             Incl.   17.07080 +/- 19
P   1.475/538.741d         H 21.23  G  0.15   U 12.2  SR
q 0.96566354 +/- 0.345    Q 1.62586881 +/- 30.6
From 11 observations 2024 July 29 (57.7 min); mean residual 0".07
Residuals in arcseconds: 
240729 W84  .03-  .02-    240729 W84  .04-  .04-    240729 W84  .21-  .02-    
240729 W84  .06-  .04+    240729 W84  .08+  .01+    240729 W84  .01+  .00     
240729 W84  .01+  .03-    240729 W84  .05+  .08+    240729 W84  .12+  .02+    
240729 W84  .11+  .02+    240729 W84  .05-  .04-    

Ephemerides (geocentric):
Date (UTC) HH   RA             Dec           delta  r     elong  mag " sig PA
---- --------  ------------   ------------  ------ ------ -----  --- --------
2024 08 14 22  01 45 11.652   -33 37 03.39  .24926 1.1616 121.2 20.3  62d 119
2024 08 14 23  01 45 16.829   -33 36 07.67  .24898 1.1615 121.2 20.3  62d 119
2024 08 15 00  01 45 22.006   -33 35 11.80  .24871 1.1613 121.2 20.3  62d 119
2024 08 15 01  01 45 27.184   -33 34 15.79  .24843 1.1611 121.2 20.3  62d 119
2024 08 15 02  01 45 32.362   -33 33 19.63  .24815 1.1610 121.2 20.3  62d 119
2024 08 15 03  01 45 37.540   -33 32 23.32  .24788 1.1608 121.2 20.3  62d 119
2024 08 15 04  01 45 42.718   -33 31 26.87  .24760 1.1607 121.2 20.3  62d 119
2024 08 15 05  01 45 47.897   -33 30 30.26  .24732 1.1605 121.3 20.3  62d 119
2024 08 15 06  01 45 53.076   -33 29 33.51  .24705 1.1603 121.3 20.3  62d 119
2024 08 15 07  01 45 58.255   -33 28 36.60  .24677 1.1602 121.3 20.3  62d 119
2024 08 15 08  01 46 03.434   -33 27 39.55  .24649 1.1600 121.3 20.3  62d 119
2024 08 15 09  01 46 08.614   -33 26 42.35  .24622 1.1598 121.3 20.3  63d 119
2024 08 15 10  01 46 13.794   -33 25 44.99  .24594 1.1597 121.3 20.3  63d 119
2024 08 15 11  01 46 18.974   -33 24 47.48  .24567 1.1595 121.3 20.3  63d 119
2024 08 15 12  01 46 24.155   -33 23 49.82  .24539 1.1594 121.3 20.3  63d 119
2024 08 15 13  01 46 29.336   -33 22 52.01  .24511 1.1592 121.3 20.3  63d 119
2024 08 15 14  01 46 34.517   -33 21 54.05  .24484 1.1590 121.3 20.3  63d 119
2024 08 15 15  01 46 39.699   -33 20 55.93  .24456 1.1589 121.3 20.3  63d 119
2024 08 15 16  01 46 44.881   -33 19 57.66  .24429 1.1587 121.3 20.3  63d 119
2024 08 15 17  01 46 50.064   -33 18 59.23  .24401 1.1585 121.4 20.3  63d 119
2024 08 15 18  01 46 55.246   -33 18 00.65  .24374 1.1584 121.4 20.3  63d 119
2024 08 15 19  01 47 00.429   -33 17 01.91  .24346 1.1582 121.4 20.3  63d 119
2024 08 15 20  01 47 05.613   -33 16 03.02  .24318 1.1580 121.4 20.3  63d 119
2024 08 15 21  01 47 10.797   -33 15 03.97  .24291 1.1579 121.4 20.3  63d 119
2024 08 15 22  01 47 15.981   -33 14 04.76  .24263 1.1577 121.4 20.3  63d 119
2024 08 15 23  01 47 21.166   -33 13 05.40  .24236 1.1576 121.4 20.3  63d 119
2024 08 16 00  01 47 26.351   -33 12 05.87  .24208 1.1574 121.4 20.3  63d 119
2024 08 16 01  01 47 31.537   -33 11 06.19  .24181 1.1572 121.4 20.3  63d 119
2024 08 16 02  01 47 36.723   -33 10 06.35  .24153 1.1571 121.4 20.3  63d 119
2024 08 16 03  01 47 41.909   -33 09 06.35  .24126 1.1569 121.4 20.3  63d 119
2024 08 16 04  01 47 47.096   -33 08 06.19  .24098 1.1567 121.5 20.3  63d 119
2024 08 16 05  01 47 52.284   -33 07 05.87  .24071 1.1566 121.5 20.3  63d 119
2024 08 16 06  01 47 57.472   -33 06 05.39  .24043 1.1564 121.5 20.3  63d 119
2024 08 16 07  01 48 02.660   -33 05 04.75  .24016 1.1563 121.5 20.3  63d 119
2024 08 16 08  01 48 07.849   -33 04 03.94  .23988 1.1561 121.5 20.3  63d 119
2024 08 16 09  01 48 13.038   -33 03 02.97  .23961 1.1559 121.5 20.3  63d 119
2024 08 16 10  01 48 18.228   -33 02 01.84  .23933 1.1558 121.5 20.3  63d 119
2024 08 16 11  01 48 23.419   -33 01 00.55  .23906 1.1556 121.5 20.2  63d 119
2024 08 16 12  01 48 28.610   -32 59 59.09  .23878 1.1554 121.5 20.2  63d 119
2024 08 16 13  01 48 33.801   -32 58 57.46  .23851 1.1553 121.5 20.2  63d 119
2024 08 16 14  01 48 38.993   -32 57 55.68  .23823 1.1551 121.5 20.2  63d 119
2024 08 16 15  01 48 44.186   -32 56 53.72  .23796 1.1549 121.6 20.2  63d 119
2024 08 16 16  01 48 49.379   -32 55 51.60  .23768 1.1548 121.6 20.2  63d 119
2024 08 16 17  01 48 54.573   -32 54 49.31  .23741 1.1546 121.6 20.2  63d 119
2024 08 16 18  01 48 59.767   -32 53 46.85  .23713 1.1545 121.6 20.2  63d 119
2024 08 16 19  01 49 04.962   -32 52 44.23  .23686 1.1543 121.6 20.2  63d 119
2024 08 16 20  01 49 10.158   -32 51 41.44  .23659 1.1541 121.6 20.2  63d 119
2024 08 16 21  01 49 15.354   -32 50 38.48  .23631 1.1540 121.6 20.2  63d 119